sat.trackr.live / text

‹ back to catalog

STARLINK-37876

NORAD 69656 · 2026-143H

PAYLOAD ACTIVE UNKNOWN

§ Identity

Operator
Country
US
Launch date
2026-06-21
Launch site
AFWTR
Launch vehicle
Mass (kg)
RCS (m²)

Purposes: comms

External: N2YO · Heavens-Above · Gunter

§ Orbital elements

Epoch: 2026-09-20T02:42:34.066656Z

Period
93.91 min
Inclination
97.2839°
Eccentricity
0.0000398
Mean motion
15.33449693 rev/d
Perigee alt
465.3 km
Apogee alt
465.8 km
Semi-major
6,843.7 km
B*
4.7408e-4
RAAN
306.3140°
Arg perigee
254.0640°
Mean anomaly
106.0559°
Rev number
1,508

§ Raw data

STARLINK-378761 69656U 26143H   26263.11289429  .00015263  00000+0  47408-3 0  99952 69656  97.2839 306.3140 0000398 254.0640 106.0559 15.33449693 15087

JSON: /api/v1/satellites/69656 · /tle

For live sub-satellite position, see the globe view (requires WebGL).

§ Visibility from observer

Set your observer location to see the next 7 days of passes ≥ 10°. The values pass through the URL so the page stays shareable.

No JS? Fill the form by hand. The geolocation button needs JavaScript.